Location: Unspecified
(17.6330°N, 0.0000°E)
Time: 04:14:34
(UTC+00:00)

S-56A Canister/Altair - Pass Details

Date: 27 June 2019
Orbit: 633 x 2499 km, 38.9° (Epoch: 13 October)

Event Time Altitude Azimuth Distance (km) Brightness Sun altitude
Rises 14:48:03 0° 271° (W) 5,853 12.6 51.1°
Reaches altitude 10° 14:53:06 10° 282° (WNW) 4,593 12.4 49.9°
Maximum altitude 15:02:46 27° 335° (NNW) 2,818 11.2 47.7°
Drops below altitude 10° 15:09:57 10° 30° (NNE) 3,343 10.8 46.0°
Sets 15:13:00 0° 43° (NE) 4,044 11.0 45.3°
